Hyannis, MA

7:01 PM EDT on August 24, 2016 (GMT -0400)
Barnstable Municipal-Boardman-Polando Field

Weather History for KHYA - January, 2014

Change the Weather History Date:

Monday, January 27, 2014

  Actual Average Record
Temperature  
Mean Temperature 36 °F -  
Max Temperature 46 °F 39 °F 54 °F (1952)
Min Temperature 26 °F 25 °F 6 °F (2007)
Degree Days  
Heating Degree Days 28    
Moisture  
Dew Point 28 °F    
Average Humidity 70    
Maximum Humidity 89    
Minimum Humidity 32    
Precipitation  
Precipitation 0.00 in - - ()
Sea Level Pressure  
Sea Level Pressure 29.73 in    
Wind  
Wind Speed 11 mph (SW)    
Max Wind Speed 26 mph    
Max Gust Speed 36 mph    
Visibility 10 miles    
Events      
Averages and records for this station are not official NWS values.
T = Trace of Precipitation, MM = Missing Value Source: NWS Daily Summary

Daily Weather History Graph

Daily Weather History Graph

Search for Another Location

Airport or City:

Trip Planner

Search our weather history database for the weather conditions in past years. The results will help you decide how hot, cold, wet, or windy it might be!

Date:

Astronomy

Jan. 27, 2014 Rise Set
Actual Time 6:57 AM EST 4:50 PM EST
Civil Twilight 6:28 AM EST 5:20 PM EST
Nautical Twilight 5:54 AM EST 5:53 PM EST
Astronomical Twilight 5:21 AM EST 6:26 PM EST
Moon 3:36 AM EST (1/27) 1:32 PM EST (1/27)
Length of Visible Light 10h 52m
Length of Day
9h 52m
Waning Crescent, 15% of the Moon is Illuminated
Jan 27
Waning Crescent
Jan 30
New
Feb 6
First Quarter
Feb 14
Full
Feb 22
Last Quarter

Hourly Weather History & Observations

Time (EST) Temp. Windchill Dew Point Humidity Pressure Visibility Wind Dir Wind Speed Gust Speed Precip Events Conditions
12:56 AM 32.0 °F 27.5 °F 26.1 °F 79% 29.85 in 10.0 mi South 4.6 mph - N/A   Overcast
1:56 AM 36.0 °F 32.1 °F 30.9 °F 82% 29.83 in 10.0 mi Variable 4.6 mph - N/A   Overcast
2:56 AM 37.9 °F 30.0 °F 30.9 °F 76% 29.81 in 10.0 mi South 12.7 mph - N/A   Overcast
3:56 AM 39.0 °F 33.4 °F 32.0 °F 76% 29.77 in 10.0 mi SSE 8.1 mph - N/A   Mostly Cloudy
4:56 AM 37.9 °F 32.1 °F 33.1 °F 83% 29.74 in 10.0 mi South 8.1 mph - N/A   Mostly Cloudy
5:56 AM 41.0 °F 34.7 °F 35.1 °F 79% 29.73 in 10.0 mi South 10.4 mph 18.4 mph N/A   Clear
6:56 AM 39.0 °F 32.8 °F 35.1 °F 86% 29.71 in 10.0 mi South 9.2 mph 19.6 mph N/A   Clear
7:56 AM 41.0 °F 34.3 °F 35.1 °F 79% 29.70 in 10.0 mi South 11.5 mph 20.7 mph N/A   Scattered Clouds
8:56 AM 42.1 °F 35.7 °F 37.9 °F 85% 29.67 in 10.0 mi South 11.5 mph 21.9 mph N/A   Mostly Cloudy
9:56 AM 42.1 °F 34.9 °F 39.0 °F 89% 29.65 in 10.0 mi South 13.8 mph - N/A   Clear
10:56 AM 43.0 °F 35.7 °F 39.0 °F 86% 29.63 in 9.0 mi SSW 15.0 mph 23.0 mph N/A   Clear
11:56 AM 45.0 °F 37.4 °F 39.9 °F 82% 29.60 in 10.0 mi SSW 18.4 mph 27.6 mph N/A   Clear
12:56 PM 45.0 °F 37.6 °F 39.0 °F 80% 29.58 in 9.0 mi SSW 17.3 mph - N/A   Overcast
1:49 PM 46.9 °F - 39.9 °F 77% 29.57 in 10.0 mi SW 25.3 mph 33.4 mph N/A   Mostly Cloudy
1:56 PM 46.9 °F - 39.9 °F 77% 29.57 in 10.0 mi SW 26.5 mph 35.7 mph N/A   Mostly Cloudy
2:56 PM 45.0 °F 36.0 °F 37.0 °F 74% 29.59 in 10.0 mi SW 25.3 mph 32.2 mph N/A   Overcast
3:56 PM 43.0 °F 35.1 °F 34.0 °F 71% 29.62 in 10.0 mi WSW 17.3 mph 25.3 mph N/A   Overcast
4:56 PM 41.0 °F 35.2 °F 33.1 °F 73% 29.68 in 10.0 mi West 9.2 mph - N/A   Scattered Clouds
5:56 PM 39.9 °F 34.5 °F 30.9 °F 70% 29.73 in 10.0 mi WNW 8.1 mph - N/A   Clear
6:56 PM 33.1 °F 23.0 °F 19.9 °F 59% 29.78 in 10.0 mi NW 15.0 mph 20.7 mph N/A   Partly Cloudy
7:56 PM 30.9 °F 20.7 °F 8.1 °F 38% 29.82 in 10.0 mi NNW 13.8 mph 26.5 mph N/A   Mostly Cloudy
8:56 PM 28.9 °F 19.2 °F 1.9 °F 32% 29.87 in 10.0 mi NW 11.5 mph 19.6 mph N/A   Overcast
9:56 PM 28.0 °F 18.6 °F 3.9 °F 36% 29.90 in 10.0 mi WNW 10.4 mph - N/A   Overcast
10:56 PM 27.0 °F 18.0 °F 1.9 °F 34% 29.93 in 10.0 mi WNW 9.2 mph - N/A   Overcast
11:56 PM 26.1 °F 17.6 °F 3.0 °F 37% 29.96 in 10.0 mi WNW 8.1 mph - N/A   Overcast